EN

Hourly Weather Ambato

Today, 26 January, Tuesday

Time Temperature Precipitation Wind Pressure Humidity
00:00 +10°C° 0.2 mm 0 mps 532 mmHg 95%
01:00 +10°C° 0.2 mm 0 mps 532 mmHg 94%
02:00 +10°C° 0.3 mm 0 mps 532 mmHg 95%
03:00 +10°C° 0.3 mm 0 mps 531 mmHg 96%
04:00 +10°C° 0.3 mm 0 mps 531 mmHg 96%
05:00 +10°C° 0.1 mm 0 mps 531 mmHg 96%
06:00 +11°C° 0.1 mm 1 mps 532 mmHg 96%
07:00 +10°C° 0.1 mm 1 mps 532 mmHg 96%
08:00 +11°C° 0 mm 1 mps 533 mmHg 93%
09:00 +12°C° 0 mm 2 mps 533 mmHg 91%
10:00 +13°C° 0 mm 2 mps 534 mmHg 88%
11:00 +13°C° 0.3 mm 2 mps 534 mmHg 88%
12:00 +13°C° 0.3 mm 2 mps 534 mmHg 88%
13:00 +13°C° 0.3 mm 2 mps 533 mmHg 88%
14:00 +14°C° 0.1 mm 2 mps 533 mmHg 84%
15:00 +15°C° 0.1 mm 2 mps 533 mmHg 80%
16:00 +16°C° 0.1 mm 2 mps 533 mmHg 76%
17:00 +14°C° 0.1 mm 2 mps 533 mmHg 82%
18:00 +13°C° 0.1 mm 2 mps 532 mmHg 89%
19:00 +12°C° 0.1 mm 1 mps 532 mmHg 95%
20:00 +12°C° 0 mm 1 mps 532 mmHg 95%
21:00 +11°C° 0 mm 1 mps 532 mmHg 95%
22:00 +11°C° 0 mm 1 mps 533 mmHg 94%
23:00 +11°C° 0.4 mm 1 mps 532 mmHg 95%

Tomorrow, 27 January, Wednesday

Time Temperature Precipitation Wind Pressure Humidity
00:00 +11°C° 0.4 mm 1 mps 532 mmHg 96%
01:00 +11°C° 0.4 mm 1 mps 532 mmHg 97%
02:00 +11°C° 0.2 mm 1 mps 532 mmHg 96%
03:00 +11°C° 0.2 mm 1 mps 532 mmHg 96%
04:00 +11°C° 0.2 mm 1 mps 532 mmHg 95%
05:00 +11°C° 0 mm 1 mps 532 mmHg 95%
06:00 +11°C° 0 mm 1 mps 532 mmHg 96%
07:00 +11°C° 0 mm 1 mps 532 mmHg 96%
08:00 +12°C° 0.1 mm 1 mps 533 mmHg 94%
09:00 +12°C° 0.1 mm 2 mps 533 mmHg 91%
10:00 +13°C° 0.1 mm 2 mps 534 mmHg 88%
11:00 +13°C° 0.3 mm 2 mps 534 mmHg 89%
12:00 +13°C° 0.3 mm 2 mps 533 mmHg 89%
13:00 +13°C° 0.3 mm 2 mps 533 mmHg 89%
14:00 +13°C° 0.1 mm 2 mps 533 mmHg 89%
15:00 +13°C° 0.1 mm 2 mps 532 mmHg 88%
16:00 +14°C° 0.1 mm 2 mps 532 mmHg 87%
17:00 +13°C° 0 mm 2 mps 532 mmHg 89%
18:00 +12°C° 0 mm 1 mps 531 mmHg 91%
19:00 +11°C° 0 mm 1 mps 531 mmHg 93%
20:00 +11°C° 0 mm 1 mps 532 mmHg 94%
21:00 +10°C° 0 mm 1 mps 532 mmHg 94%
22:00 +10°C° 0 mm 1 mps 532 mmHg 94%
23:00 +10°C° 0 mm 1 mps 532 mmHg 94%

Day after tomorrow, 28 January, Thursday

Time Temperature Precipitation Wind Pressure Humidity
00:00 +10°C° 0 mm 1 mps 532 mmHg 95%
01:00 +11°C° 0 mm 1 mps 532 mmHg 95%
02:00 +10°C° 0 mm 1 mps 532 mmHg 95%
03:00 +10°C° 0 mm 1 mps 531 mmHg 95%
04:00 +9°C° 0 mm 0 mps 531 mmHg 95%
05:00 +9°C° 0 mm 0 mps 531 mmHg 94%
06:00 +9°C° 0 mm 0 mps 531 mmHg 93%
07:00 +9°C° 0 mm 0 mps 532 mmHg 93%
08:00 +12°C° 0 mm 1 mps 533 mmHg 84%
09:00 +14°C° 0 mm 1 mps 535 mmHg 75%
10:00 +16°C° 0 mm 2 mps 536 mmHg 67%
11:00 +17°C° 0.2 mm 2 mps 536 mmHg 64%
12:00 +18°C° 0.2 mm 2 mps 536 mmHg 60%
13:00 +19°C° 0.2 mm 3 mps 536 mmHg 57%
14:00 +19°C° 0.8 mm 2 mps 535 mmHg 62%
15:00 +18°C° 0.8 mm 2 mps 535 mmHg 67%
16:00 +19°C° 0.8 mm 1 mps 534 mmHg 71%
17:00 +16°C° 0.6 mm 1 mps 533 mmHg 78%
18:00 +15°C° 0.6 mm 1 mps 533 mmHg 86%
19:00 +13°C° 0.6 mm 1 mps 532 mmHg 93%
20:00 +13°C° 0.2 mm 1 mps 532 mmHg 93%
21:00 +13°C° 0.2 mm 1 mps 533 mmHg 94%
22:00 +13°C° 0.2 mm 1 mps 533 mmHg 94%
23:00 +12°C° 0.4 mm 1 mps 533 mmHg 95%

29 January, Friday

Time Temperature Precipitation Wind Pressure Humidity
00:00 +12°C° 0.4 mm 1 mps 533 mmHg 95%
01:00 +12°C° 0.4 mm 1 mps 532 mmHg 96%
02:00 +12°C° 0.8 mm 1 mps 532 mmHg 96%
03:00 +12°C° 0.8 mm 1 mps 532 mmHg 96%
04:00 +11°C° 0.8 mm 1 mps 531 mmHg 97%
05:00 +11°C° 0.2 mm 1 mps 531 mmHg 96%
06:00 +11°C° 0.2 mm 1 mps 532 mmHg 95%
07:00 +11°C° 0.2 mm 1 mps 532 mmHg 95%
08:00 +13°C° 0.1 mm 1 mps 533 mmHg 89%
09:00 +14°C° 0.1 mm 1 mps 534 mmHg 84%
10:00 +15°C° 0.1 mm 2 mps 535 mmHg 78%
11:00 +16°C° 0.3 mm 2 mps 535 mmHg 72%
12:00 +18°C° 0.3 mm 2 mps 535 mmHg 65%
13:00 +19°C° 0.3 mm 2 mps 536 mmHg 59%
14:00 +18°C° 0.6 mm 2 mps 535 mmHg 63%
15:00 +18°C° 0.6 mm 2 mps 534 mmHg 66%
16:00 +17°C° 0.6 mm 2 mps 533 mmHg 70%
17:00 +16°C° 0.6 mm 1 mps 533 mmHg 77%
18:00 +15°C° 0.6 mm 1 mps 532 mmHg 84%
19:00 +13°C° 0.6 mm 1 mps 532 mmHg 92%
20:00 +13°C° 0.2 mm 1 mps 532 mmHg 93%
21:00 +12°C° 0.2 mm 1 mps 532 mmHg 94%
22:00 +12°C° 0.2 mm 1 mps 532 mmHg 95%
23:00 +12°C° 0.4 mm 1 mps 532 mmHg 95%

30 January, Saturday

Time Temperature Precipitation Wind Pressure Humidity
00:00 +12°C° 0.4 mm 1 mps 532 mmHg 95%
01:00 +11°C° 0.4 mm 1 mps 532 mmHg 96%
02:00 +11°C° 0.1 mm 1 mps 531 mmHg 95%
03:00 +11°C° 0.1 mm 1 mps 531 mmHg 94%
04:00 +9°C° 0.1 mm 0 mps 530 mmHg 93%
05:00 +9°C° 0.2 mm 0 mps 531 mmHg 93%
06:00 +9°C° 0.2 mm 0 mps 531 mmHg 92%
07:00 +10°C° 0.2 mm 0 mps 531 mmHg 92%
08:00 +12°C° 0.2 mm 1 mps 532 mmHg 90%
09:00 +13°C° 0.2 mm 2 mps 533 mmHg 89%
10:00 +14°C° 0.2 mm 2 mps 534 mmHg 87%
11:00 +15°C° 0.2 mm 2 mps 534 mmHg 81%
12:00 +16°C° 0.2 mm 3 mps 534 mmHg 76%
13:00 +17°C° 0.2 mm 3 mps 534 mmHg 70%
14:00 +17°C° 0.4 mm 3 mps 534 mmHg 70%
15:00 +17°C° 0.4 mm 2 mps 534 mmHg 71%
16:00 +17°C° 0.4 mm 2 mps 533 mmHg 71%
17:00 +15°C° 1.1 mm 2 mps 533 mmHg 79%
18:00 +14°C° 1.1 mm 2 mps 532 mmHg 87%
19:00 +12°C° 1.1 mm 2 mps 532 mmHg 94%
20:00 +12°C° 0.7 mm 2 mps 532 mmHg 95%
21:00 +12°C° 0.7 mm 2 mps 532 mmHg 95%
22:00 +10°C° 0.7 mm 2 mps 533 mmHg 95%
23:00 +10°C° 0.1 mm 2 mps 532 mmHg 95%

31 January, Sunday

Time Temperature Precipitation Wind Pressure Humidity
00:00 +10°C° 0.1 mm 2 mps 532 mmHg 95%
01:00 +10°C° 0.1 mm 2 mps 532 mmHg 95%
02:00 +9°C° 0 mm 2 mps 532 mmHg 95%
03:00 +9°C° 0 mm 2 mps 531 mmHg 94%
04:00 +8°C° 0 mm 2 mps 530 mmHg 94%
05:00 +8°C° 0 mm 2 mps 530 mmHg 92%
06:00 +8°C° 0 mm 1 mps 531 mmHg 91%
07:00 +8°C° 0 mm 1 mps 531 mmHg 89%
08:00 +9°C° 0 mm 2 mps 532 mmHg 78%
09:00 +13°C° 0 mm 2 mps 534 mmHg 67%
10:00 +14°C° 0 mm 3 mps 535 mmHg 56%
11:00 +16°C° 0 mm 3 mps 535 mmHg 52%
12:00 +18°C° 0 mm 4 mps 536 mmHg 49%
13:00 +19°C° 0 mm 4 mps 536 mmHg 45%
14:00 +18°C° 0 mm 4 mps 535 mmHg 48%
15:00 +18°C° 0 mm 4 mps 535 mmHg 50%
16:00 +18°C° 0 mm 4 mps 534 mmHg 53%
17:00 +16°C° 0 mm 3 mps 533 mmHg 65%
18:00 +14°C° 0 mm 2 mps 532 mmHg 77%
19:00 +12°C° 0 mm 2 mps 531 mmHg 90%
20:00 +11°C° 0 mm 1 mps 531 mmHg 90%
21:00 +11°C° 0 mm 1 mps 532 mmHg 91%
22:00 +10°C° 0 mm 1 mps 532 mmHg 91%
23:00 +10°C° 0 mm 1 mps 532 mmHg 92%
Show more